Tianmu 1-13

operational
NORAD ID: 58647 Int'l Des: 2023-205 Owner: TIANMU Country: CN
LEOCIRCULARRETROGRADESSO

Tianmu 1-13について

説明を読み込み中...

リアルタイム位置

3D地球を読み込み中...

次回通過

高度履歴

Altitude vs Time

uPlot chart will show altitude changes over time

軌道要素

1 58647U 23205C 26062.18011831 .00007386 00000-0 29206-3 0 9997
2 58647 97.3562 85.4532 0007208 358.3705 1.7508 15.25743579121338
Epoch: Mar 3, 2026 • Age: 14 hours

現在のステータス

高度 492.6 km
速度 7.62 km/s
衛星直下点 -22.91°S, 82.6°E
打ち上げ日 Dec 25, 2023
運用期間 2.1 years
タイプ other

技術仕様

分類 Payload
質量 50.00 kg
乾燥質量 50.00 kg
総質量 50.00 kg
長さ 1.50 m
直径 1.00 m
スパン 1.50 m
形状 Box
製造者 TIANMU
バスタイプ Tianmu
フェーズステータス In Orbit
所有者/国 TIANMU/CN

大規模コンステレーション

Loading constellations...